Current weather by "City, St" or "zip code"  
 
Advertise Here

Current Conditions: Knoxville, IA

Overcast


23.0 F

Last Updated on Jan 27 2021, 1:55 pm CST
Humidity: 63%
Wind Speed: N 6.9 mph
Barometer 30.42 in
Dewpoint: 12.2 F
Visibility: 10.00 mi
Precip: --
Heat Index: NA
Wind Chill: 15 F
Current conditions at:

Knoxville, IA (KOXV)

Lat: 41.3 Lon: 93.11667

Local Radar Image active severe weather and emergency alerts image image weather storm and storm spotter reports image weather observation monitoring service image
Local
Radar
Active
Alerts
Storm Reports Obs
Monitoring

Sign-up For Email & Text Message Weather Alert Notification Services


Advertise Here

Observation History for Knoxville, IA


Time Wind
(mph)
Vis
(mi)
Weather Precip (in) Temperature (F) Relative
Humidity
Wind
Chill
(F)
Heat
Index
(F)
Pressure
Air Dwpt altimeter
(in)
sea level
(mb)
Rmks
1:55 pm CST N 6.9 10.00 Overcast -- 23.0 12.2 63% 15 NA 30.42 M
12:55 pm CST NE 5.8 10.00 Mostly Cloudy -- 21.0 12.2 68% 13 NA 30.43 M
11:55 am CST N 5.8 10.00 Partly Cloudy -- 21.0 10.4 63% 13 NA 30.44 M
10:55 am CST N 8.1 10.00 Fair -- 19.0 10.4 68% 9 NA 30.43 M
9:55 am CST NE 10.4 10.00 Overcast -- 16.0 8.6 73% 4 NA 30.40 M
8:55 am CST NE 8.1 10.00 Overcast -- 14.0 8.6 79% 3 NA 30.37 M
7:55 am CST N 9.2 10.00 Overcast -- 12.0 6.8 79% NA NA 30.36 M
6:55 am CST N 6.9 10.00 Overcast -- 12.0 6.8 79% 1 NA 30.34 M
5:55 am CST N 6.9 10.00 Overcast -- 12.0 8.6 85% 1 NA 30.31 M
4:55 am CST W 4.6 10.00 Overcast -- 9.0 5.0 85% 1 NA 30.31 M
3:55 am CST N 0.0 10.00 Overcast -- 9.0 5.0 85% NA NA 30.29 M
2:55 am CST NE 5.8 10.00 Fair -- 12.0 6.8 79% 3 NA 30.27 M
1:55 am CST NE 9.2 10.00 Overcast -- 12.0 8.6 85% NA NA 30.26 M
12:55 am CST NE 9.2 10.00 Overcast -- 14.0 8.6 79% 2 NA 30.27 M
11:55 pm CST N 6.9 10.00 Overcast -- 14.0 8.6 79% 4 NA 30.28 M
10:55 pm CST N 5.8 10.00 Mostly Cloudy -- 12.0 8.6 85% 3 NA 30.25 M
9:55 pm CST N 5.8 10.00 Overcast -- 14.0 10.4 85% 5 NA 30.22 M
8:55 pm CST N 5.8 10.00 A Few Clouds -- 16.0 10.4 79% 7 NA 30.21 M
7:55 pm CST N 6.9 10.00 Fair -- 16.0 10.4 79% 6 NA 30.19 M
6:55 pm CST N 6.9 10.00 A Few Clouds -- 18.0 12.2 79% 9 NA 30.17 M
5:55 pm CST N 9.2 10.00 Fair -- 18.0 14.0 86% 7 NA 30.16 M
4:55 pm CST N 8.1 10.00 Fair -- 21.0 14.0 74% 11 NA 30.15 M
3:35 pm CST N 10.4 9.00 Overcast -- 23.0 15.8 74% 12 NA 30.12 M
2:55 pm CST N 8.1 10.00 Overcast -- 23.0 15.8 74% 14 NA 30.11 M

Regional Weather Observation


Knoxville, IA (KOXV)

Overcast
23.0 F

Ankeny Regional Airport, IA (KIKV)

Fair
19.0 F

Des Moines International Airport, IA (KDSM)

A Few Clouds
23.0 F

Chariton, IA (KCNC)

A Few Clouds
21.0 F

Ames, Ames Municipal Airport, IA (KAMW)

Fair
20.0 F

Osceola Municipal Airport, IA (KI75)

Fair
24.0 F